106  
SXUS52 KCHS 272227  
OSOCHS  
 
MARINE OBSERVATIONS  
NATIONAL WEATHER SERVICE CHARLESTON SC  
600 PM EDT WED OCT 27 2021  
   
..DOWNTOWN CHARLESTON AND HARBOR
 
 
 
CITY SKY/WX TMP DP RH WIND PRES REMARKS  
WATERFRONT PRK N/A 69 45 41 NW5 29.70S  
   
..LAKE MOULTRIE
 
 
 
CITY SKY/WX TMP DP RH WIND PRES REMARKS  
PINOPOLIS N/A 68 46 45 VRB2 29.77S  
   
..LAKE AND SUPPLEMENTAL COASTAL OBSERVATIONS
 
 
 
STATION/POSITION TIME TEMP WIND PRES WAVE SWELL  
AIR SEA DIR/SP/G HT/PER HT/PER/DIR  
(UTC) (F) (DEG/KT/KT) (MB) (FT/S) (FT/S/D)  
CHRLSTN HARBOR 2154 68 74 310/ 1/ 4 1011.0R  
FORT PULASKI 2154 69 72 330/ 4/ 5 1011.0R  
SAPELO ISLAND 2200 64 90/ 2 1011.0  
WINYAH BAY 2145 66 330/ 5 1011.0R  
LAKE MURRAY 2220 72 CALM / 1 N/A  
ACE BASIN NERRS 2145 68 CALM 1012.0R  
 
   
..C-MAN AND BUOY OBSERVATIONS
 
 
 
STATION/POSITION TIME TEMP WIND PRES WAVE SWELL  
AIR SEA DIR/SP/G HT/PER HT/PER/DIR  
(UTC) (F) (DEG/KT/KT) (MB) (FT/S) (FT/S/D)  
BUOY 41004 2210 65 79 310/ 8/ 12 1011.1  
BUOY 41008 2150 67 77 40/ 4/ 4 1010.5F 3/ 6 2/ 70/ 6  
FOLLY BEACH CMAN 2200 65 300/ 4/ 5 1011.6R  
PRITCHARDS ISLAN NOT AVBL  
CAPERS NS BUOY 2208 67 73 320/ 10/ 14 1010.6R  
CAPERS NS WAVE 2148 73 N/A 1/ 9  
FRIPP NS BUOY 2208 68 74 290/ 4/ 10 1010.5R  
5E ST. MARYS GA 2200 70 77 N/A 3/ 7  
 
 
STATION/POSITION TIME TEMP WIND PRES WAVE SWELL  
AIR SEA DIR/SP/G HT/PER HT/PER/DIR  
(UTC) (F) (DEG/KT/KT) (MB) (FT/S) (FT/S/D)  
FRYING PAN BUOY 2210 66 78 310/ 12/ 16 1010.0  
BUOY 41025 2210 66 78 320/ 14/ 17 1008.2  
CAPE LOOKOUT NC 2200 66 330/ 7/ 9 1009.6R  
BUOY 41002 2210 70 79 310/ 16/ 19 1008.0  
BUOY 41010 2210 77 81 300/ 6/ 8 1010.3  
ST AUGUSTINE FL 2200 73 79 70/ 2/ 2 1010.9R  
 

 
 
 
CLICK HERE TO GO TO PREVIOUS BULLETINS.

The Nexlab SC Page
The Nexlab GA Page Main Text Page